, CA

(GMT )
Point Mugu

Weather History for KNTD - October, 2011

Change the Weather History Date:

Friday, October 21, 2011

  Actual Average Record
Temperature  
Mean Temperature 60 °F -  
Max Temperature 64 °F 67 °F 90 °F (2015)
Min Temperature 55 °F 51 °F 46 °F (2006)
Degree Days  
Heating Degree Days 6    
Growing Degree Days 10 (Base 50)    
Moisture  
Dew Point 56 °F    
Average Humidity 85    
Maximum Humidity 100    
Minimum Humidity 73    
Precipitation  
Precipitation 0.00 in - - ()
Sea Level Pressure  
Sea Level Pressure 30.06 in    
Wind  
Wind Speed 4 mph (West)    
Max Wind Speed 12 mph    
Max Gust Speed -    
Visibility 5 miles    
Events      
Averages and records for this station are not official NWS values.
T = Trace of Precipitation, MM = Missing Value Source: NWS Daily Summary

Daily Weather History Graph

Daily Weather History Graph

Search for Another Location

Airport or City:

Trip Planner

Search our weather history database for the weather conditions in past years. The results will help you decide how hot, cold, wet, or windy it might be!

Date:

Astronomy

Oct. 21, 2011 Rise Set
Actual Time 7:06 AM PDT 6:15 PM PDT
Civil Twilight 6:41 AM PDT 6:40 PM PDT
Nautical Twilight 6:11 AM PDT 7:09 PM PDT
Astronomical Twilight 5:42 AM PDT 7:38 PM PDT
Moon 1:17 AM PDT (10/21) 2:48 PM PDT (10/21)
Length of Visible Light 11h 59m
Length of Day
11h 08m
Waning Crescent, 32% of the Moon is Illuminated
Oct 21
Waning Crescent
Oct 26
New
Nov 2
First Quarter
Nov 10
Full
Nov 18
Last Quarter

Hourly Weather History & Observations

Time (PDT) Temp. Dew Point Humidity Pressure Visibility Wind Dir Wind Speed Gust Speed Precip Events Conditions
12:54 AM 60.1 °F - N/A% 30.06 in 6.0 mi SE 5.8 mph - N/A   Haze
1:54 AM 60.1 °F - N/A% 30.06 in 6.0 mi ESE 5.8 mph - N/A   Haze
2:54 AM 60.1 °F - N/A% 30.06 in 5.0 mi East 4.6 mph - N/A   Haze
3:54 AM 60.1 °F - N/A% 30.05 in 5.0 mi Calm Calm - N/A   Haze
4:54 AM 60.1 °F - N/A% 30.05 in 5.0 mi Calm Calm - N/A   Haze
5:34 AM 60.8 °F - N/A% 30.05 in 5.0 mi East 3.5 mph - N/A   Haze
5:54 AM 61.2 °F 55.9 °F 83% 30.06 in 6.0 mi Calm Calm - N/A   Overcast
6:54 AM 60.1 °F 55.4 °F 85% 30.07 in 4.0 mi Calm Calm - N/A   Overcast
7:54 AM 60.1 °F 55.4 °F 85% 30.08 in 3.0 mi NW 4.6 mph - N/A   Overcast
8:54 AM 61.0 °F 55.4 °F 82% 30.10 in 3.0 mi Calm Calm - N/A   Overcast
9:54 AM 62.1 °F 55.4 °F 79% 30.10 in 3.0 mi WNW 4.6 mph - N/A   Overcast
10:54 AM 62.1 °F 55.4 °F 79% 30.10 in 3.0 mi WNW 4.6 mph - N/A   Haze
11:54 AM 63.0 °F 55.4 °F 76% 30.10 in 4.0 mi West 6.9 mph - N/A   Haze
12:54 PM 63.0 °F 55.4 °F 76% 30.08 in 5.0 mi WSW 8.1 mph - N/A   Haze
1:27 PM 64.4 °F 55.4 °F 73% 30.06 in 5.0 mi West 9.2 mph - N/A   Haze
1:54 PM 64.0 °F 55.4 °F 73% 30.06 in 5.0 mi WSW 11.5 mph - N/A   Haze
2:54 PM 64.0 °F 56.3 °F 76% 30.04 in 7.0 mi West 9.2 mph - N/A   Scattered Clouds
3:54 PM 63.0 °F 56.5 °F 79% 30.03 in 7.0 mi West 9.2 mph - N/A   Partly Cloudy
4:54 PM 61.0 °F 56.3 °F 85% 30.02 in 7.0 mi WNW 5.8 mph - N/A   Partly Cloudy
5:54 PM 59.0 °F 56.3 °F 91% 30.02 in 7.0 mi West 6.9 mph - N/A   Partly Cloudy
6:54 PM 57.0 °F 55.9 °F 96% 30.03 in 6.0 mi WNW 3.5 mph - N/A   Partly Cloudy
7:54 PM 55.9 °F 55.9 °F 100% 30.04 in 7.0 mi West 3.5 mph - N/A   Partly Cloudy
8:33 PM 55.4 °F 55.4 °F 100% 30.04 in 5.0 mi West 3.5 mph - N/A   Mostly Cloudy
8:54 PM 55.9 °F 55.9 °F 100% 30.04 in 5.0 mi Calm Calm - N/A   Overcast
9:54 PM 57.9 °F 55.9 °F 93% 30.06 in 5.0 mi South 5.8 mph - N/A   Overcast
10:54 PM 59.0 °F 56.3 °F 91% 30.06 in 5.0 mi Calm Calm - N/A   Overcast
11:54 PM 57.9 °F - N/A% 30.05 in 5.0 mi Calm Calm - N/A   Haze